FW6574 Weather Reports


Display with metric or nautical units.
time (UTC)temp
F
wind
direction
speed
MPH
gust
MPH
rain 1hr
in
rain 24hr
in
rain mn
in
humidity
%
barometer
mb
20260502130515 48 360 2.0 6.0 0.00 0.00 0.00 56 1014.7
20260502123515 48 360 1.0 4.0 0.00 0.00 0.00 57 1014.6
20260502123038 48 360 1.0 4.0 0.00 0.00 0.00 59 1014.7
20260502122512 48 360 1.0 4.0 0.00 0.00 0.00 58 1014.6
20260502122015 48 0 0.0 4.0 0.00 0.00 0.00 59 1014.7
20260502121532 48 360 1.0 4.0 0.00 0.00 0.00 58 1014.6
20260502121012 48 360 0.0 2.0 0.00 0.00 0.00 57 1014.6
20260502120517 48 0 0.0 2.0 0.00 0.00 0.00 63 1014.7
20260502115514 48 0 0.0 4.0 0.00 0.00 0.00 59 1014.7
20260502115013 47 0 0.0 5.0 0.00 0.00 0.00 62 1014.6
20260502114533 48 0 1.0 9.0 0.00 0.00 0.00 59 1014.6
20260502114013 47 360 0.0 9.0 0.00 0.00 0.00 60 1014.5
20260502113516 47 360 0.0 3.0 0.00 0.00 0.00 61 1014.2
20260502113033 47 360 0.0 3.0 0.00 0.00 0.00 63 1014.3
20260502112512 47 0 0.0 2.0 0.00 0.00 0.00 63 1014.2
20260502112012 47 0 0.0 2.0 0.00 0.00 0.00 59 1014.3
20260502111535 47 0 0.0 3.0 0.00 0.00 0.00 63 1014.3
20260502111012 47 0 0.0 3.0 0.00 0.00 0.00 61 1014.3
20260502110514 47 0 0.0 3.0 0.00 0.00 0.00 62 1014.3
20260502110033 46 0 0.0 6.0 0.00 0.00 0.00 62 1014.1
20260502105512 46 0 0.0 6.0 0.00 0.00 0.00 65 1014.0
20260502105017 45 0 0.0 3.0 0.00 0.00 0.00 65 1014.1
20260502104535 45 0 0.0 0.0 0.00 0.00 0.00 69 1014.0
20260502104015 45 0 0.0 0.0 0.00 0.00 0.00 68 1014.3
20260502103512 45 0 0.0 0.0 0.00 0.00 0.00 71 1014.2
20260502103030 45 0 0.0 0.0 0.00 0.00 0.00 73 1014.3
20260502102519 45 0 0.0 0.0 0.00 0.00 0.00 69 1014.3
20260502102016 46 0 0.0 0.0 0.00 0.00 0.00 70 1014.2
20260502101530 46 0 0.0 0.0 0.00 0.00 0.00 68 1014.3
20260502101014 46 0 0.0 0.0 0.00 0.00 0.00 70 1014.4
20260502100514 46 0 0.0 0.0 0.00 0.00 0.00 69 1014.3
20260502091531 49 0 0.0 3.0 0.00 0.00 0.00 63 1014.1
20260502091015 49 360 1.0 3.0 0.00 0.00 0.00 57 1014.0
20260502090515 49 0 1.0 3.0 0.00 0.00 0.00 58 1014.0
20260502071012 50 0 0.0 3.0 0.00 0.00 0.00 72 1013.8
20260502070515 50 0 0.0 3.0 0.00 0.00 0.00 73 1013.9
20260502070034 49 360 0.0 3.0 0.00 0.00 0.00 76 1013.8
20260502065515 49 0 0.0 2.0 0.00 0.00 0.00 75 1013.8
20260502065013 49 0 0.0 2.0 0.00 0.00 0.00 74 1013.9
20260502064535 49 0 0.0 2.0 0.00 0.00 0.00 75 1013.7
20260502064021 49 0 0.0 0.0 0.00 0.00 0.00 75 1013.7
20260502063515 49 0 0.0 0.0 0.00 0.00 0.00 75 1013.9
20260502063034 49 0 0.0 2.0 0.00 0.00 0.00 73 1014.0
20260502062515 49 0 0.0 2.0 0.00 0.00 0.00 76 1013.9
20260502062012 49 0 0.0 2.0 0.00 0.00 0.00 75 1014.0
20260502061538 49 0 0.0 0.0 0.00 0.00 0.00 75 1014.0
20260502061012 49 0 0.0 0.0 0.00 0.00 0.00 72 1014.1
20260502060512 49 0 0.0 4.0 0.00 0.00 0.00 75 1014.2
20260502060032 50 0 0.0 4.0 0.00 0.00 0.00 74 1014.1
20260502055515 50 84 0.0 2.0 0.00 0.00 0.00 73 1014.1
20260502055013 50 0 0.0 2.0 0.00 0.00 0.00 72 1014.0
20260502054532 50 0 0.0 0.0 0.00 0.00 0.00 72 1013.9
20260502054017 51 0 0.0 0.0 0.00 0.00 0.00 70 1013.8
20260502053512 51 0 0.0 0.0 0.00 0.00 0.00 69 1013.8
20260502053032 52 0 0.0 4.0 0.00 0.00 0.00 65 1013.9
20260502052513 52 0 0.0 4.0 0.00 0.00 0.00 65 1013.9
20260502052015 52 360 0.0 3.0 0.00 0.00 0.00 66 1013.9
20260502051534 52 360 0.0 2.0 0.00 0.00 0.00 65 1013.9
20260502051012 53 0 0.0 2.0 0.00 0.00 0.00 63 1013.8
20260502050521 53 360 0.0 2.0 0.00 0.00 0.00 64 1014.0
20260502050031 53 0 0.0 2.0 0.00 0.00 0.00 65 1013.9
20260502045513 53 0 0.0 5.0 0.00 0.00 0.00 63 1014.0
20260502045013 54 0 0.0 5.0 0.00 0.00 0.00 63 1014.0
20260502044533 54 360 1.0 4.0 0.00 0.00 0.00 63 1014.0
20260502044017 54 0 1.0 4.0 0.00 0.00 0.00 63 1014.0
20260502043512 54 0 0.0 4.0 0.00 0.00 0.00 64 1013.8
20260502043032 54 360 1.0 4.0 0.00 0.00 0.00 63 1013.8
20260502042514 55 0 1.0 4.0 0.00 0.00 0.00 64 1014.0
20260502042018 55 0 1.0 4.0 0.00 0.00 0.00 64 1013.9
20260502041533 55 360 0.0 4.0 0.00 0.00 0.00 64 1013.8
20260502041014 55 360 1.0 4.0 0.00 0.00 0.00 65 1013.7
20260502040515 55 0 1.0 5.0 0.00 0.00 0.00 65 1013.8
20260502040037 55 360 1.0 5.0 0.00 0.00 0.00 63 1013.7
20260502035513 55 360 0.0 4.0 0.00 0.00 0.00 64 1013.7
20260502035016 55 360 2.0 4.0 0.00 0.00 0.00 64 1013.7
20260502034532 55 360 0.0 6.0 0.00 0.00 0.00 66 1013.7
20260502034015 56 360 1.0 6.0 0.00 0.00 0.00 64 1013.6
20260502033512 55 0 0.0 2.0 0.00 0.00 0.00 65 1013.7
20260502033032 56 0 0.0 2.0 0.00 0.00 0.00 66 1013.7
20260502032514 56 0 0.0 2.0 0.00 0.00 0.00 65 1013.7
20260502032014 56 0 0.0 2.0 0.00 0.00 0.00 65 1013.5
20260502031535 56 360 0.0 3.0 0.00 0.00 0.00 64 1013.6
20260502031015 56 360 1.0 3.0 0.00 0.00 0.00 65 1013.5
20260502030515 56 0 0.0 3.0 0.00 0.00 0.00 64 1013.4
20260502030032 57 0 0.0 4.0 0.00 0.00 0.00 64 1013.5
20260502025512 57 360 1.0 4.0 0.00 0.00 0.00 63 1013.6
20260502025014 57 0 1.0 4.0 0.00 0.00 0.00 63 1013.4
20260502024532 57 360 1.0 3.0 0.00 0.00 0.00 63 1013.4
20260502024018 57 0 0.0 2.0 0.00 0.00 0.00 64 1013.3
20260502023514 57 0 0.0 3.0 0.00 0.00 0.00 63 1013.2
20260502023031 57 0 0.0 4.0 0.00 0.00 0.00 64 1013.1
20260502022513 57 0 0.0 4.0 0.00 0.00 0.00 61 1013.0
20260502022014 57 360 0.0 4.0 0.00 0.00 0.00 62 1012.8
20260502021531 57 0 0.0 4.0 0.00 0.00 0.00 62 1012.7
20260502021017 56 360 0.0 4.0 0.00 0.00 0.00 64 1012.4
20260502020515 55 360 0.0 4.0 0.00 0.00 0.00 69 1012.1
20260502020032 54 0 0.0 4.0 0.00 0.00 0.00 72 1012.0
20260502015513 54 0 0.0 2.0 0.00 0.00 0.00 79 1012.0
20260502015013 54 0 0.0 0.0 0.00 0.00 0.00 79 1012.0
20260502014533 54 0 0.0 1.0 0.00 0.00 0.00 79 1011.9
20260502014013 54 0 0.0 1.0 0.00 0.00 0.00 79 1011.9
20260502013513 55 0 0.0 1.0 0.00 0.00 0.00 79 1011.7
20260502013032 55 0 0.0 0.0 0.00 0.00 0.00 78 1011.8
20260502012514 55 0 0.0 0.0 0.00 0.00 0.00 77 1011.5
20260502012014 56 0 0.0 0.0 0.00 0.00 0.00 77 1011.4
20260502011533 56 0 0.0 0.0 0.00 0.00 0.00 76 1011.2
20260502011013 56 0 0.0 0.0 0.00 0.00 0.00 74 1011.2
20260502010512 56 0 0.0 0.0 0.00 0.00 0.00 75 1010.9
20260502010031 57 0 0.0 0.0 0.00 0.00 0.00 73 1011.0
20260502005515 57 0 0.0 0.0 0.00 0.00 0.00 72 1010.9
20260502005017 58 0 0.0 0.0 0.00 0.00 0.00 71 1010.6
20260502004530 58 0 0.0 0.0 0.00 0.00 0.00 70 1010.7
20260502004013 58 0 0.0 0.0 0.00 0.00 0.00 69 1010.5
20260502003513 58 0 0.0 0.0 0.00 0.00 0.00 70 1010.4
20260502003030 59 0 0.0 0.0 0.00 0.00 0.00 69 1010.4
20260502002513 59 0 0.0 0.0 0.00 0.00 0.00 68 1010.4
20260502002014 59 0 0.0 2.0 0.00 0.00 0.00 67 1010.2
20260502001532 60 0 0.0 2.0 0.00 0.00 0.00 63 1010.1
20260502001014 60 0 0.0 2.0 0.00 0.00 0.00 64 1010.2
20260502000512 60 0 0.0 0.0 0.00 0.00 0.00 64 1010.1
20260502000036 61 0 0.0 0.0 0.00 0.00 0.00 63 1009.9
20260501235513 61 0 0.0 1.0 0.00 0.00 0.00 60 1009.8
20260501235013 61 0 0.0 1.0 0.00 0.00 0.00 61 1009.7
20260501234531 62 0 0.0 2.0 0.00 0.00 0.00 58 1009.8
20260501234013 62 0 0.0 2.0 0.00 0.00 0.00 57 1009.8
20260501233513 62 55 0.0 2.0 0.00 0.00 0.00 56 1009.7
20260501233032 63 0 0.0 3.0 0.00 0.00 0.00 54 1009.7
20260501232515 63 0 0.0 3.0 0.00 0.00 0.00 55 1009.7
20260501232019 63 55 0.0 3.0 0.00 0.00 0.00 54 1009.6
20260501231530 63 0 0.0 0.0 0.00 0.00 0.00 55 1009.6
20260501231014 64 0 0.0 2.0 0.00 0.00 0.00 54 1009.6
20260501230514 64 0 0.0 3.0 0.00 0.00 0.00 51 1009.6
20260501230030 65 0 0.0 3.0 0.00 0.00 0.00 48 1009.4
20260501225515 65 77 0.0 3.0 0.00 0.00 0.00 48 1009.4
20260501225014 65 40 1.0 3.0 0.00 0.00 0.00 48 1009.5
20260501224533 65 72 0.0 3.0 0.00 0.00 0.00 50 1009.5
20260501224013 65 36 0.0 3.0 0.00 0.00 0.00 48 1009.5
20260501223514 65 339 1.0 3.0 0.00 0.00 0.00 48 1009.5
20260501223034 65 0 0.0 4.0 0.00 0.00 0.00 48 1009.5
20260501222517 65 24 0.0 5.0 0.00 0.00 0.00 49 1009.5
20260501222014 65 0 1.0 7.0 0.00 0.00 0.00 47 1009.5
20260501221534 65 59 2.0 7.0 0.00 0.00 0.00 47 1009.6
20260501221014 65 190 2.0 6.0 0.00 0.00 0.00 48 1009.6
20260501220511 65 25 0.0 7.0 0.00 0.00 0.00 49 1009.7
20260501220031 65 15 1.0 7.0 0.00 0.00 0.00 48 1009.7
20260501215514 65 113 2.0 7.0 0.00 0.00 0.00 47 1009.6
20260501215012 65 72 1.0 7.0 0.00 0.00 0.00 48 1009.8
20260501214529 64 0 1.0 7.0 0.00 0.00 0.00 49 1009.7
20260501214014 64 117 2.0 4.0 0.00 0.00 0.00 47 1009.8
20260501213513 64 0 0.0 10.0 0.00 0.00 0.00 47 1009.8
20260501213030 64 72 1.0 10.0 0.00 0.00 0.00 47 1009.9
20260501212513 64 315 2.0 6.0 0.00 0.00 0.00 46 1009.9
20260501212014 64 62 1.0 8.0 0.00 0.00 0.00 46 1010.0
20260501211537 65 101 1.0 8.0 0.00 0.00 0.00 47 1010.1
20260501211013 65 198 0.0 6.0 0.00 0.00 0.00 47 1009.9
20260501210513 64 273 1.0 7.0 0.00 0.00 0.00 46 1009.9
20260501210041 64 260 2.0 7.0 0.00 0.00 0.00 46 1010.0
20260501205516 64 0 0.0 4.0 0.00 0.00 0.00 49 1010.2
20260501205012 64 0 0.0 5.0 0.00 0.00 0.00 47 1010.3
20260501204552 64 0 1.0 5.0 0.00 0.00 0.00 49 1010.1
20260501204014 64 227 0.0 4.0 0.00 0.00 0.00 47 1010.2
20260501203514 65 0 0.0 4.0 0.00 0.00 0.00 47 1010.2
20260501203033 64 84 2.0 6.0 0.00 0.00 0.00 46 1010.3
20260501202517 64 88 1.0 6.0 0.00 0.00 0.00 48 1010.6
20260501202019 64 71 1.0 6.0 0.00 0.00 0.00 46 1010.6
20260501201532 65 328 1.0 6.0 0.00 0.00 0.00 45 1010.5
20260501201012 66 0 0.0 6.0 0.00 0.00 0.00 46 1010.6
20260501200515 68 101 1.0 4.0 0.00 0.00 0.00 42 1010.7
20260501200034 66 83 1.0 4.0 0.00 0.00 0.00 44 1010.9
20260501195516 65 0 0.0 5.0 0.00 0.00 0.00 45 1010.8
20260501195017 66 0 0.0 5.0 0.00 0.00 0.00 44 1010.9
20260501194533 67 88 1.0 7.0 0.00 0.00 0.00 45 1011.1
20260501194016 67 231 2.0 7.0 0.00 0.00 0.00 39 1011.4
20260501193516 68 0 1.0 9.0 0.00 0.00 0.00 43 1011.3
20260501193033 66 267 3.0 9.0 0.00 0.00 0.00 42 1011.6
20260501192513 67 0 0.0 6.0 0.00 0.00 0.00 42 1011.7
20260501192016 66 346 0.0 6.0 0.00 0.00 0.00 42 1011.9
20260501191535 66 0 3.0 8.0 0.00 0.00 0.00 42 1012.0
20260501191013 66 281 1.0 8.0 0.00 0.00 0.00 43 1012.0
20260501190519 66 219 3.0 8.0 0.00 0.00 0.00 42 1012.3
20260501190036 67 183 1.0 6.0 0.00 0.00 0.00 44 1012.1
20260501185514 66 121 2.0 6.0 0.00 0.00 0.00 42 1012.1
20260501185019 66 0 1.0 6.0 0.00 0.00 0.00 43 1012.2
20260501184532 66 0 0.0 5.0 0.00 0.00 0.00 44 1012.3
20260501184013 65 270 2.0 7.0 0.00 0.00 0.00 43 1012.4
20260501183517 65 258 2.0 7.0 0.00 0.00 0.00 43 1012.3
20260501183033 65 0 0.0 4.0 0.00 0.00 0.00 43 1012.4
20260501182518 64 321 2.0 5.0 0.00 0.00 0.00 44 1012.4
20260501182012 65 0 1.0 5.0 0.00 0.00 0.00 44 1012.4
20260501181534 66 159 1.0 5.0 0.00 0.00 0.00 45 1012.5
20260501181019 65 78 1.0 7.0 0.00 0.00 0.00 46 1012.8
20260501180514 63 327 1.0 9.0 0.00 0.00 0.00 45 1013.0
20260501180035 64 0 1.0 9.0 0.00 0.00 0.00 45 1013.0
20260501175516 64 256 3.0 9.0 0.00 0.00 0.00 43 1013.2
20260501175022 63 0 1.0 6.0 0.00 0.00 0.00 43 1013.2
20260501174604 64 245 2.0 5.0 0.00 0.00 0.00 44 1013.2
20260501174013 63 119 1.0 4.0 0.00 0.00 0.00 45 1013.2
20260501173516 63 360 2.0 4.0 0.00 0.00 0.00 44 1013.3
20260501173036 63 309 1.0 7.0 0.00 0.00 0.00 48 1013.5
20260501172518 63 0 1.0 7.0 0.00 0.00 0.00 44 1013.6
20260501172016 61 289 2.0 7.0 0.00 0.00 0.00 48 1013.7
20260501171534 61 256 3.0 7.0 0.00 0.00 0.00 47 1014.0
20260501171013 62 271 1.0 6.0 0.00 0.00 0.00 45 1014.0
20260501170514 61 61 1.0 9.0 0.00 0.00 0.00 47 1014.0
20260501170039 61 229 2.0 9.0 0.00 0.00 0.00 48 1014.2
20260501165517 62 260 1.0 10.0 0.00 0.00 0.00 47 1014.3
20260501165015 62 0 1.0 10.0 0.00 0.00 0.00 48 1014.3
20260501164533 61 300 1.0 7.0 0.00 0.00 0.00 49 1014.3
20260501164017 61 313 1.0 6.0 0.00 0.00 0.00 50 1014.3
20260501163518 61 0 1.0 4.0 0.00 0.00 0.00 47 1014.4
20260501163033 60 136 2.0 4.0 0.00 0.00 0.00 50 1014.6
20260501162513 60 0 0.0 4.0 0.00 0.00 0.00 49 1014.7
20260501162018 60 310 0.0 4.0 0.00 0.00 0.00 52 1014.7
20260501161532 59 252 0.0 3.0 0.00 0.00 0.00 51 1014.7
20260501161016 60 94 1.0 3.0 0.00 0.00 0.00 52 1014.7
20260501160516 59 0 0.0 10.0 0.00 0.00 0.00 54 1014.9
20260501160034 58 219 2.0 10.0 0.00 0.00 0.00 53 1015.1
20260501155516 57 309 0.0 8.0 0.00 0.00 0.00 53 1015.0
20260501155015 57 5 1.0 8.0 0.00 0.00 0.00 52 1015.2
20260501154540 57 228 3.0 8.0 0.00 0.00 0.00 51 1015.3
20260501154016 57 0 2.0 5.0 0.00 0.00 0.00 53 1015.3
20260501153514 57 0 0.0 7.0 0.00 0.00 0.00 52 1015.1
20260501153037 56 184 2.0 7.0 0.00 0.00 0.00 52 1015.3
20260501152520 56 314 2.0 6.0 0.00 0.00 0.00 54 1015.4
20260501152017 57 268 1.0 4.0 0.00 0.00 0.00 54 1015.5
20260501151536 56 0 0.0 4.0 0.00 0.00 0.00 55 1015.6
20260501151012 55 263 0.0 4.0 0.00 0.00 0.00 54 1015.7
20260501150517 56 0 2.0 6.0 0.00 0.00 0.00 53 1015.6
20260501150033 55 0 1.0 6.0 0.00 0.00 0.00 56 1015.5
20260501145515 55 250 1.0 6.0 0.00 0.00 0.00 55 1015.6
20260501145018 55 265 1.0 5.0 0.00 0.00 0.00 56 1015.4
20260501144534 55 0 0.0 5.0 0.00 0.00 0.00 58 1015.6
20260501144016 54 0 0.0 5.0 0.00 0.00 0.00 57 1015.7
20260501143513 54 227 2.0 5.0 0.00 0.00 0.00 58 1015.8
20260501143030 54 229 2.0 5.0 0.00 0.00 0.00 57 1015.8